| time (UTC) | temp C | wind direction | speed KPH | gust KPH | rain 1hr cm | rain 24hr cm | rain mn cm | humidity % | barometer mb |
| 20260509074744 | 13 | 168 | 8.0 | 11.3 | 0.00 | 0.00 | 0.00 | 37 | 1014.4 |
| 20260509073730 | 14 | 154 | 3.2 | 8.0 | 0.00 | 0.00 | 0.00 | 43 | 1014.4 |
| 20260509072740 | 14 | 153 | 4.8 | 11.3 | 0.00 | 0.00 | 0.00 | 34 | 1014.4 |
| 20260509071727 | 14 | 148 | 6.4 | 8.0 | 0.00 | 0.00 | 0.00 | 34 | 1014.3 |
| 20260509070733 | 14 | 144 | 9.7 | 14.5 | 0.00 | 0.00 | 0.00 | 34 | 1014.3 |
| 20260509065745 | 14 | 154 | 9.7 | 12.9 | 0.00 | 0.00 | 0.00 | 37 | 1014.2 |
| 20260509064732 | 13 | 141 | 4.8 | 12.9 | 0.00 | 0.00 | 0.00 | 39 | 1014.2 |
| 20260509063742 | 13 | 152 | 8.0 | 11.3 | 0.00 | 0.00 | 0.00 | 39 | 1014.1 |
| 20260509062729 | 13 | 162 | 4.8 | 9.7 | 0.00 | 0.00 | 0.00 | 42 | 1014.0 |
| 20260509061736 | 12 | 163 | 6.4 | 11.3 | 0.00 | 0.00 | 0.00 | 43 | 1013.9 |
| 20260509060739 | 12 | 67 | 0.0 | 4.8 | 0.00 | 0.00 | 0.00 | 47 | 1013.9 |
| 20260509055731 | 12 | 67 | 3.2 | 8.0 | 0.00 | 0.00 | 0.00 | 47 | 1013.8 |
| 20260509054743 | 12 | 67 | 4.8 | 6.4 | 0.00 | 0.00 | 0.00 | 44 | 1013.8 |
| 20260509053731 | 12 | 67 | 0.0 | 1.6 | 0.00 | 0.00 | 0.00 | 42 | 1013.7 |
| 20260509052757 | 12 | 67 | 0.0 | 8.0 | 0.00 | 0.00 | 0.00 | 47 | 1013.7 |
| 20260509051742 | 12 | 66 | 6.4 | 9.7 | 0.00 | 0.00 | 0.00 | 46 | 1013.8 |
| 20260509050730 | 12 | 147 | 4.8 | 8.0 | 0.00 | 0.00 | 0.00 | 47 | 1013.8 |
| 20260509045741 | 13 | 175 | 1.6 | 6.4 | 0.00 | 0.00 | 0.00 | 45 | 1013.9 |
| 20260509044726 | 13 | 169 | 0.0 | 8.0 | 0.00 | 0.00 | 0.00 | 41 | 1013.8 |
| 20260509043734 | 15 | 88 | 6.4 | 9.7 | 0.00 | 0.00 | 0.00 | 37 | 1013.5 |
| 20260509042741 | 16 | 79 | 1.6 | 9.7 | 0.00 | 0.00 | 0.00 | 33 | 1013.5 |
| 20260509041754 | 16 | 79 | 6.4 | 12.9 | 0.00 | 0.00 | 0.00 | 31 | 1013.0 |
| 20260509040800 | 16 | 88 | 12.9 | 16.1 | 0.00 | 0.00 | 0.00 | 31 | 1013.2 |
| 20260509035732 | 16 | 105 | 8.0 | 11.3 | 0.00 | 0.00 | 0.00 | 32 | 1013.2 |
| 20260509034741 | 15 | 81 | 6.4 | 8.0 | 0.00 | 0.00 | 0.00 | 35 | 1013.3 |
| 20260509033733 | 16 | 78 | 4.8 | 8.0 | 0.00 | 0.00 | 0.00 | 36 | 1013.3 |
| 20260509032741 | 16 | 97 | 6.4 | 11.3 | 0.00 | 0.00 | 0.00 | 33 | 1013.2 |
| 20260509031729 | 16 | 101 | 1.6 | 4.8 | 0.00 | 0.00 | 0.00 | 34 | 1013.1 |
| 20260509030738 | 17 | 101 | 3.2 | 14.5 | 0.00 | 0.00 | 0.00 | 31 | 1013.0 |
| 20260509025737 | 17 | 103 | 8.0 | 12.9 | 0.00 | 0.00 | 0.00 | 32 | 1013.0 |
| 20260509024743 | 17 | 96 | 6.4 | 9.7 | 0.00 | 0.00 | 0.00 | 36 | 1012.9 |
| 20260509023730 | 18 | 93 | 0.0 | 6.4 | 0.00 | 0.00 | 0.00 | 30 | 1012.8 |
| 20260509022734 | 19 | 93 | 3.2 | 9.7 | 0.00 | 0.00 | 0.00 | 30 | 1012.6 |
| 20260509021743 | 19 | 107 | 4.8 | 9.7 | 0.00 | 0.00 | 0.00 | 29 | 1012.6 |
| 20260509020729 | 20 | 43 | 1.6 | 6.4 | 0.00 | 0.00 | 0.00 | 30 | 1012.4 |
| 20260509015743 | 21 | 360 | 3.2 | 6.4 | 0.00 | 0.00 | 0.00 | 30 | 1012.3 |
| 20260509014730 | 21 | 350 | 0.0 | 6.4 | 0.00 | 0.00 | 0.00 | 29 | 1012.1 |
| 20260509013735 | 22 | 350 | 1.6 | 8.0 | 0.00 | 0.00 | 0.00 | 27 | 1012.1 |
| 20260509012744 | 22 | 348 | 3.2 | 12.9 | 0.00 | 0.00 | 0.00 | 27 | 1011.9 |
| 20260509011731 | 23 | 360 | 4.8 | 8.0 | 0.00 | 0.00 | 0.00 | 24 | 1011.9 |
| 20260509010738 | 23 | 355 | 6.4 | 19.3 | 0.00 | 0.00 | 0.00 | 23 | 1011.8 |
| 20260509005727 | 24 | 5 | 6.4 | 17.7 | 0.00 | 0.00 | 0.00 | 22 | 1011.8 |
| 20260509004738 | 24 | 345 | 12.9 | 22.5 | 0.00 | 0.00 | 0.00 | 21 | 1011.7 |
| 20260509003745 | 25 | 344 | 11.3 | 24.1 | 0.00 | 0.00 | 0.00 | 20 | 1011.8 |
| 20260509002732 | 25 | 306 | 8.0 | 24.1 | 0.00 | 0.00 | 0.00 | 23 | 1011.9 |
| 20260509001737 | 25 | 355 | 9.7 | 16.1 | 0.00 | 0.00 | 0.00 | 22 | 1011.9 |
| 20260509000759 | 25 | 333 | 11.3 | 25.7 | 0.00 | 0.00 | 0.00 | 20 | 1012.0 |
| 20260508235756 | 25 | 315 | 11.3 | 20.9 | 0.00 | 0.00 | 0.00 | 20 | 1012.0 |
| 20260508234742 | 25 | 311 | 11.3 | 22.5 | 0.00 | 0.00 | 0.00 | 20 | 1012.1 |
| 20260508233745 | 24 | 337 | 11.3 | 22.5 | 0.00 | 0.00 | 0.00 | 21 | 1012.1 |
| 20260508232734 | 24 | 271 | 9.7 | 16.1 | 0.00 | 0.00 | 0.00 | 25 | 1012.1 |
| 20260508231726 | 23 | 213 | 6.4 | 19.3 | 0.00 | 0.00 | 0.00 | 27 | 1012.2 |
| 20260508230735 | 24 | 255 | 8.0 | 22.5 | 0.00 | 0.00 | 0.00 | 28 | 1012.2 |
| 20260508225727 | 23 | 215 | 11.3 | 17.7 | 0.00 | 0.00 | 0.00 | 26 | 1012.2 |
| 20260508224734 | 24 | 221 | 8.0 | 25.7 | 0.00 | 0.00 | 0.00 | 26 | 1012.3 |
| 20260508223800 | 24 | 299 | 8.0 | 16.1 | 0.00 | 0.00 | 0.00 | 25 | 1012.2 |
| 20260508222731 | 23 | 289 | 8.0 | 17.7 | 0.00 | 0.00 | 0.00 | 26 | 1012.5 |
| 20260508221739 | 23 | 267 | 12.9 | 17.7 | 0.00 | 0.00 | 0.00 | 24 | 1012.6 |
| 20260508220726 | 23 | 290 | 3.2 | 20.9 | 0.00 | 0.00 | 0.00 | 27 | 1012.7 |
| 20260508215741 | 23 | 331 | 11.3 | 20.9 | 0.00 | 0.00 | 0.00 | 25 | 1012.8 |
| 20260508214734 | 23 | 295 | 4.8 | 16.1 | 0.00 | 0.00 | 0.00 | 26 | 1013.0 |
| 20260508213800 | 23 | 284 | 9.7 | 25.7 | 0.00 | 0.00 | 0.00 | 26 | 1013.2 |
| 20260508212805 | 23 | 5 | 12.9 | 24.1 | 0.00 | 0.00 | 0.00 | 25 | 1013.2 |
| 20260508211731 | 23 | 284 | 8.0 | 17.7 | 0.00 | 0.00 | 0.00 | 26 | 1013.3 |
| 20260508210743 | 23 | 234 | 14.5 | 22.5 | 0.00 | 0.00 | 0.00 | 24 | 1013.3 |
| 20260508205740 | 23 | 238 | 8.0 | 30.6 | 0.00 | 0.00 | 0.00 | 27 | 1013.5 |
| 20260508204805 | 22 | 171 | 3.2 | 9.7 | 0.00 | 0.00 | 0.00 | 28 | 1013.6 |
| 20260508203729 | 22 | 278 | 0.0 | 16.1 | 0.00 | 0.00 | 0.00 | 29 | 1013.7 |
| 20260508202741 | 22 | 271 | 6.4 | 11.3 | 0.00 | 0.00 | 0.00 | 27 | 1013.8 |
| 20260508201806 | 23 | 17 | 4.8 | 16.1 | 0.00 | 0.00 | 0.00 | 28 | 1014.0 |
| 20260508200750 | 23 | 294 | 11.3 | 20.9 | 0.00 | 0.00 | 0.00 | 27 | 1014.0 |
| 20260508195742 | 22 | 238 | 4.8 | 17.7 | 0.00 | 0.00 | 0.00 | 30 | 1014.0 |
| 20260508194747 | 22 | 236 | 1.6 | 19.3 | 0.00 | 0.00 | 0.00 | 28 | 1014.1 |
| 20260508193754 | 21 | 209 | 3.2 | 17.7 | 0.00 | 0.00 | 0.00 | 31 | 1014.3 |
| 20260508192742 | 21 | 291 | 4.8 | 17.7 | 0.00 | 0.00 | 0.00 | 31 | 1014.4 |
| 20260508191730 | 20 | 257 | 6.4 | 12.9 | 0.00 | 0.00 | 0.00 | 31 | 1014.5 |
| 20260508190738 | 20 | 202 | 4.8 | 14.5 | 0.00 | 0.00 | 0.00 | 32 | 1014.6 |
| 20260508185730 | 20 | 229 | 4.8 | 12.9 | 0.00 | 0.00 | 0.00 | 33 | 1014.6 |
| 20260508184743 | 20 | 193 | 8.0 | 14.5 | 0.00 | 0.00 | 0.00 | 31 | 1014.8 |
| 20260508183730 | 20 | 186 | 3.2 | 20.9 | 0.00 | 0.00 | 0.00 | 33 | 1014.9 |
| 20260508182738 | 20 | 178 | 4.8 | 14.5 | 0.00 | 0.00 | 0.00 | 34 | 1014.9 |
| 20260508181803 | 20 | 204 | 3.2 | 12.9 | 0.00 | 0.00 | 0.00 | 33 | 1015.1 |
| 20260508180744 | 19 | 111 | 9.7 | 16.1 | 0.00 | 0.00 | 0.00 | 33 | 1015.2 |
| 20260508175740 | 19 | 126 | 6.4 | 12.9 | 0.00 | 0.00 | 0.00 | 32 | 1015.4 |
| 20260508174740 | 19 | 220 | 4.8 | 17.7 | 0.00 | 0.00 | 0.00 | 34 | 1015.4 |
| 20260508173726 | 18 | 171 | 8.0 | 16.1 | 0.00 | 0.00 | 0.00 | 31 | 1015.4 |
| 20260508172732 | 18 | 206 | 6.4 | 16.1 | 0.00 | 0.00 | 0.00 | 33 | 1015.4 |
| 20260508171738 | 18 | 212 | 6.4 | 12.9 | 0.00 | 0.00 | 0.00 | 33 | 1015.4 |
| 20260508170729 | 18 | 155 | 9.7 | 14.5 | 0.00 | 0.00 | 0.00 | 33 | 1015.5 |
| 20260508165757 | 17 | 173 | 9.7 | 16.1 | 0.00 | 0.00 | 0.00 | 37 | 1015.5 |
| 20260508164741 | 17 | 205 | 9.7 | 17.7 | 0.00 | 0.00 | 0.00 | 39 | 1015.4 |
| 20260508163745 | 17 | 185 | 11.3 | 17.7 | 0.00 | 0.00 | 0.00 | 41 | 1015.4 |
| 20260508162731 | 16 | 185 | 8.0 | 16.1 | 0.00 | 0.00 | 0.00 | 49 | 1015.4 |
| 20260508161738 | 15 | 192 | 8.0 | 16.1 | 0.00 | 0.00 | 0.00 | 56 | 1015.4 |
| 20260508160741 | 15 | 222 | 8.0 | 11.3 | 0.00 | 0.00 | 0.00 | 57 | 1015.4 |
| 20260508155731 | 14 | 205 | 4.8 | 11.3 | 0.00 | 0.00 | 0.00 | 56 | 1015.5 |
| 20260508154735 | 13 | 173 | 8.0 | 11.3 | 0.00 | 0.00 | 0.00 | 56 | 1015.5 |
| 20260508153744 | 13 | 200 | 6.4 | 9.7 | 0.00 | 0.00 | 0.00 | 56 | 1015.6 |
| 20260508152729 | 12 | 196 | 4.8 | 6.4 | 0.00 | 0.00 | 0.00 | 58 | 1015.6 |
| 20260508151735 | 12 | 244 | 3.2 | 8.0 | 0.00 | 0.00 | 0.00 | 66 | 1015.6 |
| 20260508150741 | 12 | 236 | 4.8 | 8.0 | 0.00 | 0.00 | 0.00 | 67 | 1015.5 |
| 20260508145733 | 11 | 252 | 1.6 | 3.2 | 0.00 | 0.00 | 0.00 | 69 | 1015.4 |
| 20260508144738 | 10 | 252 | 0.0 | 3.2 | 0.00 | 0.00 | 0.00 | 71 | 1015.3 |
| 20260508143741 | 10 | 252 | 1.6 | 4.8 | 0.00 | 0.00 | 0.00 | 72 | 1015.4 |
| 20260508142805 | 10 | 300 | 1.6 | 3.2 | 0.00 | 0.00 | 0.00 | 72 | 1015.3 |
| 20260508141735 | 9 | 319 | 0.0 | 4.8 | 0.00 | 0.00 | 0.00 | 75 | 1015.3 |
| 20260508140759 | 8 | 319 | 1.6 | 3.2 | 0.00 | 0.00 | 0.00 | 76 | 1015.3 |
| 20260508135801 | 7 | 316 | 1.6 | 3.2 | 0.00 | 0.00 | 0.00 | 76 | 1015.2 |
| 20260508134745 | 7 | 322 | 0.0 | 3.2 | 0.00 | 0.00 | 0.00 | 78 | 1015.1 |
| 20260508133730 | 6 | 322 | 1.6 | 6.4 | 0.00 | 0.00 | 0.00 | 77 | 1014.9 |
| 20260508132738 | 6 | 281 | 0.0 | 3.2 | 0.00 | 0.00 | 0.00 | 77 | 1014.8 |
| 20260508131743 | 6 | 281 | 0.0 | 6.4 | 0.00 | 0.00 | 0.00 | 78 | 1014.7 |
| 20260508130727 | 6 | 22 | 0.0 | 3.2 | 0.00 | 0.00 | 0.00 | 77 | 1014.6 |
| 20260508125736 | 6 | 22 | 0.0 | 4.8 | 0.00 | 0.00 | 0.00 | 77 | 1014.4 |
| 20260508124740 | 6 | 21 | 3.2 | 4.8 | 0.00 | 0.00 | 0.00 | 76 | 1014.2 |
| 20260508123730 | 6 | 20 | 1.6 | 4.8 | 0.00 | 0.00 | 0.00 | 75 | 1014.1 |
| 20260508122736 | 6 | 21 | 3.2 | 4.8 | 0.00 | 0.00 | 0.00 | 75 | 1014.1 |
| 20260508121743 | 6 | 20 | 3.2 | 4.8 | 0.00 | 0.00 | 0.00 | 74 | 1014.0 |
| 20260508120737 | 6 | 19 | 1.6 | 4.8 | 0.00 | 0.00 | 0.00 | 74 | 1013.9 |
| 20260508115729 | 6 | 15 | 1.6 | 8.0 | 0.00 | 0.00 | 0.00 | 74 | 1013.8 |
| 20260508114734 | 6 | 51 | 1.6 | 4.8 | 0.00 | 0.00 | 0.00 | 74 | 1013.7 |
| 20260508113739 | 6 | 52 | 1.6 | 4.8 | 0.00 | 0.00 | 0.00 | 73 | 1013.6 |
| 20260508112742 | 6 | 53 | 1.6 | 4.8 | 0.00 | 0.00 | 0.00 | 73 | 1013.4 |
| 20260508111732 | 6 | 53 | 0.0 | 3.2 | 0.00 | 0.00 | 0.00 | 74 | 1013.4 |
| 20260508110737 | 6 | 53 | 0.0 | 3.2 | 0.00 | 0.00 | 0.00 | 73 | 1013.3 |
| 20260508105725 | 7 | 53 | 3.2 | 4.8 | 0.00 | 0.00 | 0.00 | 72 | 1013.2 |
| 20260508104732 | 6 | 53 | 1.6 | 3.2 | 0.00 | 0.00 | 0.00 | 73 | 1013.1 |
| 20260508103743 | 7 | 53 | 0.0 | 0.0 | 0.00 | 0.00 | 0.00 | 72 | 1013.0 |
| 20260508102748 | 7 | 53 | 1.6 | 4.8 | 0.00 | 0.00 | 0.00 | 70 | 1013.2 |
| 20260508101733 | 7 | 53 | 0.0 | 1.6 | 0.00 | 0.00 | 0.00 | 69 | 1013.0 |
| 20260508100737 | 7 | 53 | 1.6 | 6.4 | 0.00 | 0.00 | 0.00 | 71 | 1012.9 |
| 20260508095745 | 7 | 340 | 0.0 | 4.8 | 0.00 | 0.00 | 0.00 | 71 | 1013.0 |
| 20260508094752 | 7 | 338 | 0.0 | 4.8 | 0.00 | 0.00 | 0.00 | 70 | 1012.9 |
| 20260508093756 | 7 | 321 | 0.0 | 6.4 | 0.00 | 0.00 | 0.00 | 70 | 1012.9 |
| 20260508092741 | 7 | 19 | 1.6 | 4.8 | 0.00 | 0.00 | 0.00 | 70 | 1012.8 |
| 20260508091726 | 7 | 15 | 1.6 | 4.8 | 0.00 | 0.00 | 0.00 | 70 | 1012.9 |
| 20260508090736 | 7 | 15 | 0.0 | 4.8 | 0.00 | 0.00 | 0.00 | 69 | 1012.8 |
| 20260508085747 | 7 | 15 | 0.0 | 4.8 | 0.00 | 0.00 | 0.00 | 68 | 1012.5 |
| 20260508084730 | 8 | 15 | 3.2 | 4.8 | 0.00 | 0.00 | 0.00 | 66 | 1012.7 |
| 20260508083756 | 8 | 15 | 0.0 | 3.2 | 0.00 | 0.00 | 0.00 | 66 | 1012.9 |
| 20260508082739 | 8 | 14 | 1.6 | 8.0 | 0.00 | 0.00 | 0.00 | 67 | 1012.7 |
| 20260508081724 | 8 | 13 | 4.8 | 8.0 | 0.00 | 0.00 | 0.00 | 65 | 1012.8 |
| 20260508080728 | 9 | 108 | 1.6 | 6.4 | 0.00 | 0.00 | 0.00 | 65 | 1012.8 |
| 20260508075757 | 9 | 44 | 1.6 | 3.2 | 0.00 | 0.00 | 0.00 | 66 | 1012.7 |